Location: Newark
(35.6799°N, 139.7636°E)
Time: 19:08:43
(UTC+00:00)

Courier 1B Rocket - Pass Details

Date: 12 December 2019
Orbit: 920 x 1202 km, 28.2° (Epoch: 28 January)

Event Time Altitude Azimuth Distance (km) Brightness Sun altitude
Exits shadow 18:32:37 20° 168° (SSE) 2,274 7.0 -37.5°
Maximum altitude 18:33:36 21° 157° (SSE) 2,231 7.0 -37.3°
Drops below altitude 10° 18:38:33 10° 111° (ESE) 2,852 8.1 -36.3°
Sets 18:41:54 0° 96° (E) 3,753 9.1 -35.6°
